Islip, NY

11:45 PM EST on November 24, 2017 (GMT -0500)
Long Island Mac Arthur

Weather History for KISP - February, 2014

Change the Weather History Date:

Monday, February 3, 2014

  Actual Average Record
Temperature  
Mean Temperature 36 °F 31 °F  
Max Temperature 42 °F 39 °F 64 °F (1991)
Min Temperature 30 °F 24 °F 9 °F (1994)
Degree Days  
Heating Degree Days 29 34  
Month to date heating degree days 80 102  
Since 1 July heating degree days 3052 3094  
Cooling Degree Days 0 0  
Month to date cooling degree days 0 0  
Year to date cooling degree days 0 0  
Moisture  
Dew Point 29 °F    
Average Humidity 77    
Maximum Humidity 89    
Minimum Humidity 65    
Precipitation  
Precipitation 0.95 in 0.11 in 0.95 in (2014)
Month to date precipitation 0.95 0.33  
Year to date precipitation 4.93 3.97  
Snow  
Snow 7.00 in 0.20 in 7.00 in (2014)
Month to date snowfall 7.0 0.7  
Since 1 July snowfall 40.6 13.3  
Snow Depth 0.00 in    
Sea Level Pressure  
Sea Level Pressure 30.13 in    
Wind  
Wind Speed 10 mph (North)    
Max Wind Speed 18 mph    
Max Gust Speed 24 mph    
Visibility 4 miles    
Events Fog , Rain , Snow    
T = Trace of Precipitation, MM = Missing Value Source: NWS Daily Summary

Daily Weather History Graph

Daily Weather History Graph

Search for Another Location

Airport or City:

Trip Planner

Search our weather history database for the weather conditions in past years. The results will help you decide how hot, cold, wet, or windy it might be!

Date:

Astronomy

Feb. 03, 2014 Rise Set
Actual Time 7:00 AM EST 5:12 PM EST
Civil Twilight 6:31 AM EST 5:41 PM EST
Nautical Twilight 5:59 AM EST 6:13 PM EST
Astronomical Twilight 5:26 AM EST 6:46 PM EST
Moon 8:59 AM EST (2/3) 10:01 PM EST (2/3)
Length of Visible Light 11h 09m
Length of Day
10h 11m
Waxing Crescent, 19% of the Moon is Illuminated
Feb 3
Waxing Crescent
Feb 6
First Quarter
Feb 14
Full
Feb 22
Last Quarter
Mar 1
New

Hourly Weather History & Observations

Time (EST) Temp. Windchill Dew Point Humidity Pressure Visibility Wind Dir Wind Speed Gust Speed Precip Events Conditions
12:56 AM 41.0 °F 34.7 °F 30.0 °F 65% 30.07 in 10.0 mi North 10.4 mph - N/A   Overcast
1:56 AM 39.0 °F 34.0 °F 30.9 °F 73% 30.07 in 10.0 mi North 6.9 mph - 0.01 in   Overcast
2:56 AM 37.0 °F 30.4 °F 30.9 °F 79% 30.08 in 8.0 mi North 9.2 mph - 0.02 in Rain Light Rain
3:56 AM 35.1 °F 30.1 °F 30.0 °F 82% 30.10 in 7.0 mi North 5.8 mph - 0.04 in Rain Light Rain
4:56 AM 34.0 °F 25.5 °F 30.0 °F 85% 30.12 in 8.0 mi North 11.5 mph - 0.04 in Rain Light Rain
5:14 AM 33.8 °F 26.4 °F 28.4 °F 81% 30.12 in 2.0 mi North 9.2 mph - 0.01 in Snow Light Snow
5:25 AM 33.8 °F 27.0 °F 30.2 °F 87% 30.11 in 2.0 mi North 8.1 mph - 0.02 in Snow Light Snow
5:32 AM 33.8 °F 26.4 °F 30.2 °F 87% 30.10 in 1.8 mi North 9.2 mph - 0.03 in Snow Light Snow
5:41 AM 33.8 °F 27.0 °F 30.2 °F 87% 30.10 in 2.5 mi North 8.1 mph - 0.03 in Snow Light Snow
5:56 AM 33.1 °F 26.1 °F 30.0 °F 89% 30.11 in 2.5 mi North 8.1 mph - 0.04 in Snow Light Snow
6:30 AM 33.8 °F 26.4 °F 30.2 °F 87% 30.10 in 1.2 mi NNE 9.2 mph - 0.03 in Snow Light Snow
6:56 AM 33.1 °F 26.1 °F 30.0 °F 89% 30.12 in 1.2 mi North 8.1 mph - 0.05 in Snow Light Snow
6:59 AM 33.8 °F 26.4 °F 30.2 °F 87% 30.12 in 0.5 mi North 9.2 mph - 0.01 in Fog , Snow Snow
7:56 AM 33.1 °F 24.9 °F 30.0 °F 89% 30.13 in 0.5 mi NNE 10.4 mph - 0.08 in Fog , Snow Snow
8:52 AM 33.8 °F 25.8 °F 30.2 °F 87% 30.13 in 0.2 mi NNE 10.4 mph - 0.08 in Fog , Snow Snow
8:56 AM 33.1 °F 25.5 °F 30.0 °F 89% 30.13 in 0.5 mi NNE 9.2 mph - 0.09 in Fog , Snow Snow
9:56 AM 33.1 °F 24.9 °F 30.0 °F 89% 30.14 in 0.2 mi North 10.4 mph - 0.10 in Fog , Snow Snow
10:56 AM 33.1 °F 25.5 °F 30.9 °F 92% 30.14 in 0.2 mi NNE 9.2 mph - 0.10 in Fog , Snow Snow
11:56 AM 33.1 °F 24.9 °F 30.9 °F 92% 30.09 in 0.2 mi NNE 10.4 mph - 0.09 in Fog , Snow Snow
12:56 PM 33.1 °F 23.9 °F 30.9 °F 92% 30.06 in 0.2 mi NNE 12.7 mph - 0.11 in Fog , Snow Snow
1:56 PM 33.1 °F 23.0 °F 30.0 °F 89% 30.04 in 1.0 mi NNE 15.0 mph - 0.08 in Snow Light Snow
2:56 PM 33.1 °F 23.4 °F 30.0 °F 89% 30.07 in 0.5 mi NNE 13.8 mph 23.0 mph 0.05 in Fog , Snow Snow
3:32 PM 33.8 °F 23.5 °F 30.2 °F 87% 30.09 in 1.5 mi NNE 16.1 mph - 0.02 in Snow Light Snow
3:56 PM 33.1 °F 23.4 °F 28.9 °F 85% 30.09 in 1.5 mi NNE 13.8 mph 21.9 mph 0.03 in Snow Light Snow
4:56 PM 32.0 °F 22.5 °F 28.9 °F 88% 30.12 in 1.2 mi North 12.7 mph - 0.02 in Snow Light Snow
5:56 PM 32.0 °F 22.5 °F 28.0 °F 85% 30.15 in 1.5 mi North 12.7 mph - 0.00 in Snow Light Snow
6:39 PM 32.0 °F 22.5 °F 28.4 °F 87% 30.17 in 1.5 mi North 12.7 mph - 0.00 in Snow Light Snow
6:56 PM 32.0 °F 23.0 °F 28.0 °F 85% 30.18 in 1.5 mi North 11.5 mph - 0.00 in Snow Light Snow
7:56 PM 32.0 °F 24.2 °F 28.0 °F 85% 30.20 in 9.0 mi North 9.2 mph - 0.00 in   Overcast
8:56 PM 32.0 °F 23.6 °F 28.0 °F 85% 30.22 in 10.0 mi North 10.4 mph - N/A   Overcast
9:56 PM 32.0 °F 25.6 °F 27.0 °F 82% 30.25 in 10.0 mi North 6.9 mph - N/A   Overcast
10:56 PM 30.9 °F 24.3 °F 27.0 °F 85% 30.28 in 10.0 mi NNW 6.9 mph - N/A   Overcast
11:56 PM 30.9 °F 25.2 °F 26.1 °F 82% 30.29 in 10.0 mi North 5.8 mph - N/A   Mostly Cloudy